Time,TemperatureF,DewpointF,PressureIn,WindDirection,WindDirectionDegrees,WindSpeedMPH,WindSpeedGustMPH,Humidity,HourlyPrecipIn,Conditions,Clouds,dailyrainin,SolarRadiationWatts/m^2,SoftwareType,DateUTC
2013-10-10 00:02:00,41.0,33.0,-100.00,NW,326,11.0,18.0,74,0.00,,,0.00,0.000000,,2013-10-10 07:02:00,
2013-10-10 00:11:00,41.0,33.0,-100.00,NW,326,11.0,18.0,74,0.00,,,0.00,0.000000,,2013-10-10 07:11:00,
2013-10-10 00:21:00,41.0,33.0,-100.00,NW,326,11.0,18.0,74,0.00,,,0.00,0.000000,,2013-10-10 07:21:00,
2013-10-10 00:52:00,43.0,35.0,-100.00,NW,307,5.0,13.0,73,0.00,,,0.00,0.000000,,2013-10-10 07:52:00,
2013-10-10 01:02:00,43.0,35.0,-100.00,NW,307,5.0,13.0,73,0.00,,,0.00,0.000000,,2013-10-10 08:02:00,
2013-10-10 01:11:00,43.0,35.0,-100.00,NW,307,5.0,13.0,73,0.00,,,0.00,0.000000,,2013-10-10 08:11:00,
2013-10-10 01:22:00,43.0,35.0,-100.00,NW,307,5.0,13.0,73,0.00,,,0.00,0.000000,,2013-10-10 08:22:00,
2013-10-10 01:52:00,42.0,31.0,-100.00,NW,308,6.0,10.0,65,0.00,,,0.00,0.000000,,2013-10-10 08:52:00,
2013-10-10 02:02:00,42.0,31.0,-100.00,NW,308,6.0,10.0,65,0.00,,,0.00,0.000000,,2013-10-10 09:02:00,
2013-10-10 02:11:00,42.0,31.0,-100.00,NW,308,6.0,10.0,65,0.00,,,0.00,0.000000,,2013-10-10 09:11:00,
2013-10-10 02:21:00,42.0,31.0,-100.00,NW,308,6.0,10.0,65,0.00,,,0.00,0.000000,,2013-10-10 09:21:00,
2013-10-10 02:53:00,42.0,31.0,-100.00,NW,317,8.0,12.0,65,0.00,,,0.00,0.000000,,2013-10-10 09:53:00,
2013-10-10 03:03:00,42.0,31.0,-100.00,NW,317,8.0,12.0,65,0.00,,,0.00,0.000000,,2013-10-10 10:03:00,
2013-10-10 03:12:00,42.0,31.0,-100.00,NW,317,8.0,12.0,65,0.00,,,0.00,0.000000,,2013-10-10 10:12:00,
2013-10-10 03:23:00,42.0,31.0,-100.00,NW,317,8.0,12.0,65,0.00,,,0.00,0.000000,,2013-10-10 10:23:00,
2013-10-10 03:53:00,42.0,31.0,-100.00,WNW,298,4.0,11.0,65,0.00,,,0.00,0.000000,,2013-10-10 10:53:00,
2013-10-10 04:02:00,42.0,31.0,-100.00,WNW,298,4.0,11.0,65,0.00,,,0.00,0.000000,,2013-10-10 11:02:00,
2013-10-10 04:12:00,42.0,31.0,-100.00,WNW,298,4.0,11.0,65,0.00,,,0.00,0.000000,,2013-10-10 11:12:00,
2013-10-10 04:21:00,42.0,31.0,-100.00,WNW,298,4.0,11.0,65,0.00,,,0.00,0.000000,,2013-10-10 11:21:00,
2013-10-10 07:52:00,44.0,28.0,-100.00,SSW,203,14.0,19.0,53,-99.99,,,0.00,13.000000,,2013-10-10 14:52:00,
2013-10-10 08:02:00,44.0,28.0,-100.00,SSW,203,14.0,19.0,53,-99.99,,,0.00,13.000000,,2013-10-10 15:02:00,
2013-10-10 08:11:00,44.0,28.0,-100.00,SSW,203,14.0,19.0,53,-99.99,,,0.00,13.000000,,2013-10-10 15:11:00,
2013-10-10 08:22:00,44.0,28.0,-100.00,SSW,203,14.0,19.0,53,-99.99,,,0.00,13.000000,,2013-10-10 15:22:00,
2013-10-10 08:54:00,46.0,27.0,-100.00,SW,215,15.0,20.0,48,0.00,,,0.00,192.000000,,2013-10-10 15:54:00,
2013-10-10 09:03:00,46.0,27.0,-100.00,SW,215,15.0,20.0,48,0.00,,,0.00,192.000000,,2013-10-10 16:03:00,
2013-10-10 09:13:00,46.0,27.0,-100.00,SW,215,15.0,20.0,48,0.00,,,0.00,192.000000,,2013-10-10 16:13:00,
2013-10-10 09:23:00,46.0,27.0,-100.00,SW,215,15.0,20.0,48,0.00,,,0.00,192.000000,,2013-10-10 16:23:00,
2013-10-10 09:53:00,46.0,27.0,-100.00,SSW,210,14.0,25.0,48,0.00,,,0.00,426.000000,,2013-10-10 16:53:00,
2013-10-10 10:02:00,46.0,27.0,-100.00,SSW,210,14.0,25.0,48,0.00,,,0.00,426.000000,,2013-10-10 17:02:00,
2013-10-10 10:12:00,46.0,27.0,-100.00,SSW,210,14.0,25.0,48,0.00,,,0.00,426.000000,,2013-10-10 17:12:00,
2013-10-10 10:23:00,46.0,27.0,-100.00,SSW,210,14.0,25.0,48,0.00,,,0.00,426.000000,,2013-10-10 17:23:00,
2013-10-10 10:52:00,49.0,28.0,-100.00,SSW,197,15.0,21.0,44,0.00,,,0.00,642.000000,,2013-10-10 17:52:00,
2013-10-10 11:02:00,49.0,28.0,-100.00,SSW,197,15.0,21.0,44,0.00,,,0.00,642.000000,,2013-10-10 18:02:00,
2013-10-10 11:12:00,49.0,28.0,-100.00,SSW,197,15.0,21.0,44,0.00,,,0.00,642.000000,,2013-10-10 18:12:00,
2013-10-10 11:21:00,49.0,28.0,-100.00,SSW,197,15.0,21.0,44,0.00,,,0.00,642.000000,,2013-10-10 18:21:00,
2013-10-10 11:52:00,57.0,30.0,-100.00,SSW,193,8.0,23.0,35,0.00,,,0.00,807.000000,,2013-10-10 18:52:00,
2013-10-10 12:01:00,57.0,30.0,-100.00,SSW,193,8.0,23.0,35,0.00,,,0.00,807.000000,,2013-10-10 19:01:00,
2013-10-10 12:11:00,57.0,30.0,-100.00,SSW,193,8.0,23.0,35,0.00,,,0.00,807.000000,,2013-10-10 19:11:00,
2013-10-10 12:21:00,57.0,30.0,-100.00,SSW,193,8.0,23.0,35,0.00,,,0.00,807.000000,,2013-10-10 19:21:00,
2013-10-10 12:53:00,59.0,26.0,-100.00,SSW,205,7.0,12.0,28,0.00,,,0.00,905.000000,,2013-10-10 19:53:00,
2013-10-10 13:02:00,59.0,26.0,-100.00,SSW,205,7.0,12.0,28,0.00,,,0.00,905.000000,,2013-10-10 20:02:00,
2013-10-10 13:12:00,59.0,26.0,-100.00,SSW,205,7.0,12.0,28,0.00,,,0.00,905.000000,,2013-10-10 20:12:00,
2013-10-10 13:22:00,59.0,26.0,-100.00,SSW,205,7.0,12.0,28,0.00,,,0.00,905.000000,,2013-10-10 20:22:00,
2013-10-10 13:52:00,60.0,28.0,-100.00,South,186,10.0,15.0,29,0.00,,,0.00,925.000000,,2013-10-10 20:52:00,
2013-10-10 14:03:00,60.0,28.0,-100.00,South,186,10.0,15.0,29,0.00,,,0.00,925.000000,,2013-10-10 21:03:00,
2013-10-10 14:12:00,60.0,28.0,-100.00,South,186,10.0,15.0,29,0.00,,,0.00,925.000000,,2013-10-10 21:12:00,
2013-10-10 14:21:00,60.0,28.0,-100.00,South,186,10.0,15.0,29,0.00,,,0.00,925.000000,,2013-10-10 21:21:00,
2013-10-10 14:54:00,62.0,27.0,-100.00,SSW,194,10.0,19.0,26,0.00,,,0.00,867.000000,,2013-10-10 21:54:00,
2013-10-10 15:04:00,62.0,27.0,-100.00,SSW,194,10.0,19.0,26,0.00,,,0.00,867.000000,,2013-10-10 22:04:00,
2013-10-10 15:13:00,62.0,27.0,-100.00,SSW,194,10.0,19.0,26,0.00,,,0.00,867.000000,,2013-10-10 22:13:00,
2013-10-10 15:24:00,62.0,27.0,-100.00,SSW,194,10.0,19.0,26,0.00,,,0.00,867.000000,,2013-10-10 22:24:00,
2013-10-10 15:53:00,63.0,28.0,-100.00,SSW,198,10.0,17.0,26,0.00,,,0.00,737.000000,,2013-10-10 22:53:00,
2013-10-10 16:03:00,63.0,28.0,-100.00,SSW,198,10.0,17.0,26,0.00,,,0.00,737.000000,,2013-10-10 23:03:00,
2013-10-10 16:12:00,63.0,28.0,-100.00,SSW,198,10.0,17.0,26,0.00,,,0.00,737.000000,,2013-10-10 23:12:00,
2013-10-10 16:23:00,63.0,28.0,-100.00,SSW,198,10.0,17.0,26,0.00,,,0.00,737.000000,,2013-10-10 23:23:00,
2013-10-10 16:52:00,63.0,28.0,-100.00,SSW,199,9.0,19.0,26,0.00,,,0.00,542.000000,,2013-10-10 23:52:00,
2013-10-10 17:02:00,63.0,28.0,-100.00,SSW,199,9.0,19.0,26,0.00,,,0.00,542.000000,,2013-10-11 00:02:00,
2013-10-10 17:11:00,63.0,28.0,-100.00,SSW,199,9.0,19.0,26,0.00,,,0.00,542.000000,,2013-10-11 00:11:00,
2013-10-10 17:21:00,63.0,28.0,-100.00,SSW,199,9.0,19.0,26,0.00,,,0.00,542.000000,,2013-10-11 00:21:00,
2013-10-10 17:52:00,59.0,27.0,-100.00,SSW,198,9.0,17.0,29,0.00,,,0.00,269.000000,,2013-10-11 00:52:00,
2013-10-10 18:01:00,59.0,27.0,-100.00,SSW,198,9.0,17.0,29,0.00,,,0.00,269.000000,,2013-10-11 01:01:00,
2013-10-10 18:11:00,59.0,27.0,-100.00,SSW,198,9.0,17.0,29,0.00,,,0.00,269.000000,,2013-10-11 01:11:00,
2013-10-10 18:21:00,59.0,27.0,-100.00,SSW,198,9.0,17.0,29,0.00,,,0.00,269.000000,,2013-10-11 01:21:00,
2013-10-10 18:52:00,57.0,30.0,-100.00,SSW,194,10.0,19.0,35,0.00,,,0.00,23.000000,,2013-10-11 01:52:00,
2013-10-10 19:02:00,57.0,30.0,-100.00,SSW,194,10.0,19.0,35,0.00,,,0.00,23.000000,,2013-10-11 02:02:00,
2013-10-10 19:12:00,57.0,30.0,-100.00,SSW,194,10.0,19.0,35,0.00,,,0.00,23.000000,,2013-10-11 02:12:00,
2013-10-10 19:21:00,57.0,30.0,-100.00,SSW,194,10.0,19.0,35,0.00,,,0.00,23.000000,,2013-10-11 02:21:00,
2013-10-10 19:52:00,53.0,27.0,-100.00,SSW,204,8.0,12.0,37,0.00,,,0.00,0.000000,,2013-10-11 02:52:00,
2013-10-10 20:02:00,53.0,27.0,-100.00,SSW,204,8.0,12.0,37,0.00,,,0.00,0.000000,,2013-10-11 03:02:00,
2013-10-10 20:11:00,53.0,27.0,-100.00,SSW,204,8.0,12.0,37,0.00,,,0.00,0.000000,,2013-10-11 03:11:00,
2013-10-10 20:23:00,53.0,27.0,-100.00,SSW,204,8.0,12.0,37,0.00,,,0.00,0.000000,,2013-10-11 03:23:00,
2013-10-10 20:54:00,52.0,32.0,-100.00,SSW,212,6.0,11.0,46,0.00,,,0.00,0.000000,,2013-10-11 03:54:00,
2013-10-10 21:04:00,52.0,32.0,-100.00,SSW,212,6.0,11.0,46,0.00,,,0.00,0.000000,,2013-10-11 04:04:00,
2013-10-10 21:13:00,52.0,32.0,-100.00,SSW,212,6.0,11.0,46,0.00,,,0.00,0.000000,,2013-10-11 04:13:00,
2013-10-10 21:24:00,52.0,32.0,-100.00,SSW,212,6.0,11.0,46,0.00,,,0.00,0.000000,,2013-10-11 04:24:00,
2013-10-10 21:53:00,53.0,28.0,-100.00,SW,228,6.0,9.0,38,0.00,,,0.00,0.000000,,2013-10-11 04:53:00,
2013-10-10 22:03:00,53.0,28.0,-100.00,SW,228,6.0,9.0,38,0.00,,,0.00,0.000000,,2013-10-11 05:03:00,
2013-10-10 22:13:00,53.0,28.0,-100.00,SW,228,6.0,9.0,38,0.00,,,0.00,0.000000,,2013-10-11 05:13:00,
2013-10-10 22:23:00,53.0,28.0,-100.00,SW,228,6.0,9.0,38,0.00,,,0.00,0.000000,,2013-10-11 05:23:00,
2013-10-10 22:52:00,52.0,29.0,-100.00,SW,215,6.0,10.0,41,0.00,,,0.00,0.000000,,2013-10-11 05:52:00,
2013-10-10 23:02:00,52.0,29.0,-100.00,SW,215,6.0,10.0,41,0.00,,,0.00,0.000000,,2013-10-11 06:02:00,
2013-10-10 23:12:00,52.0,29.0,-100.00,SW,215,6.0,10.0,41,0.00,,,0.00,0.000000,,2013-10-11 06:12:00,
2013-10-10 23:22:00,52.0,29.0,-100.00,SW,215,6.0,10.0,41,0.00,,,0.00,0.000000,,2013-10-11 06:22:00,
2013-10-10 23:52:00,52.0,28.0,-100.00,SSW,211,5.0,10.0,39,0.00,,,0.00,0.000000,,2013-10-11 06:52:00,